Regional Weather Roundup
Issued by NWS Sterling, VA

Current Version | Previous Version | Text Only | Print | Product List | Glossary On
Versions: 1 2 3 4 5 6 7 8 9 10 11 12 13 14 15 16 17 18 19 20 21 22 23 24 25 26 27 28 29 30 31 32 33 34 35 36 37 38 39 40 41 42 43 44 45 46 47 48 49 50
000
ASUS41 KLWX 291310
RWRLWX

REGIONAL WEATHER ROUNDUP
NATIONAL WEATHER SERVICE BALTIMORE MD/WASHINGTON DC
900 AM EDT SUN MAR 29 2015

Note: "FAIR" indicates few or no clouds below 12,000 feet
with no significant weather and/or obstructions to visibility.
 TC=TEMPERATURE CELSIUS

 * =Non NWS site. Station does not report precipitation (e.g. rain,
    snow, etc.), thunder, or fog.

DCZ001-MDZ009-015-VAZ040>042-051-053>054-291400-
WASHINGTON METRO

CITY           SKY/WX    TMP DP  RH WIND       PRES   REMARKS
WASHINGTON NAT SUNNY     31  10  41 NW12      30.40R WCI  22
DULLES         SUNNY     27   8  44 NW14      30.39R WCI  16
ANDREWS AFB    SUNNY     29   8  42 NW14      30.37R WCI  18
FT BELVOIR     SUNNY     29   7  40 NW14      30.40R WCI  18
QUANTICO       SUNNY     31   7  36 N14G26    30.42R WCI  21
COLLEGE PARK*  SUNNY     30  10  43 NW7       30.38S
LEESBURG*      SUNNY     30  12  47 NW8       30.39S WCI  23
MANASSAS*      SUNNY     28  10  47 NW9G17    30.40S WCI  20
GAITHERSBURG*  SUNNY     27   9  46 NW10      30.40S WCI  17

$$

MDZ006>007-011-014-291400-
BALTIMORE METRO

CITY           SKY/WX    TMP DP  RH WIND       PRES   REMARKS
BWI AIRPORT    SUNNY     29   9  43 NW7       30.37R
MD SCIENCE CTR   N/A     30   8  39 MISG      30.36F
MARTIN STATE   SUNNY     30  12  47 NW9G21    30.38S WCI  22
ANNAPOLIS      SUNNY     30  14  51 NW14      30.37R WCI  19

$$

MDZ012-015-019>023-291400-
MARYLAND EASTERN SHORE

CITY           SKY/WX    TMP DP  RH WIND       PRES   REMARKS
OCEAN CITY     SUNNY     30  10  43 N14G23    30.33R WCI  19
SALISBURY      SUNNY     30  10  43 NW16G23   30.34R WCI  19
BAY BRIDGE AP*   N/A     30  10  43 NW13G18   30.37S WCI  20
CAMBRIDGE*     SUNNY     32  12  43 NW14G23   30.36R WCI  22
EASTON*        SUNNY     32  16  51 N9G23     30.39R WCI  24

$$

MDZ017>025-291400-
SOUTHERN MARYLAND

CITY           SKY/WX    TMP DP  RH WIND       PRES   REMARKS
PATUXENT RIVER SUNNY     30   8  39 NW18G29   30.38R WCI  18
ST INIGOES     SUNNY     30   6  36 NW12G17   30.38R WCI  20
LEONARDTOWN*   SUNNY     30   9  40 NW8G17    30.39R WCI  23

$$

MDZ003>005-291400-
NORTH CENTRAL MARYLAND

CITY           SKY/WX    TMP DP  RH WIND       PRES   REMARKS
FREDERICK*     SUNNY     30   7  37 CALM      30.41R
HAGERSTOWN APT SUNNY     25   8  48 W6        30.36R
WESTMINSTER*   SUNNY     25   9  50 NW9       30.33R WCI  15

$$

MDZ501>502-291400-
WESTERN MARYLAND

CITY           SKY/WX    TMP DP  RH WIND       PRES   REMARKS
OAKLAND*       SUNNY     16  10  79 W7        30.23R
CUMBERLAND*    SUNNY     27   9  46 CALM      30.42R

$$

VAZ025>031-291400-
SHENANDOAH VALLEY

CITY           SKY/WX    TMP DP  RH WIND       PRES   REMARKS
WINCHESTER*    SUNNY     30   1  29 NW10G16   30.36S WCI  21
FRONT ROYAL*   FAIR      28   5  37 CALM      30.36S
LURAY*         FAIR      30  10  43 S5        30.37R
NEW MARKET*    FAIR      27   6  41 SE3       30.36S
STAUNTON*      SUNNY     26   6  44 CALM      30.38R
WAYNESBORO*    FAIR      24   6  46 W3        30.34S

$$

WVZ021-048>050-054>055-291400-
EASTERN WEST VIRGINIA PANHANDLE

CITY           SKY/WX    TMP DP  RH WIND       PRES   REMARKS
MARTINSBURG    SUNNY     28   7  41 N9        30.38R WCI  19
PETERSBURG*    SUNNY     24   8  52 CALM      30.39R

$$

VAZ036>039-050-291400-
CENTRAL FOOTHILLS

CITY           SKY/WX    TMP DP  RH WIND       PRES   REMARKS
CHARLOTTESVILL SUNNY     30   5  34 VRB3      30.38R
CULPEPER*      SUNNY     30   7  37 N5        30.40S
ORANGE*        SUNNY     32  18  55 CALM      30.40S
GORDONSVILLE*  FAIR      29   6  37 NW6       30.39R
WARRENTON*     FAIR      31  13  47 NW12      30.39S WCI  22

$$

VAZ055>057-291400-
NORTH AND CENTRAL PIEDMONT

CITY           SKY/WX    TMP DP  RH WIND       PRES   REMARKS
FREDERICKSBRG* SUNNY     31   7  37 NW8G17    30.40S WCI  23
STAFFORD*      SUNNY     28   7  40 NW15      30.45R WCI  16

$$

NCZ024-NYZ072-PAZ021-071-VAZ022-071-291400-
OTHER REGIONAL OBSERVATIONS

CITY           SKY/WX    TMP DP  RH WIND       PRES   REMARKS
NEW YORK CITY  MOSUNNY   27   4  37 NW5       30.28R
PHILADELPHIA   SUNNY     30   7  37 N16       30.33R WCI  19
PITTSBURGH     MOSUNNY   22  12  65 SW5       30.35R
ROANOKE        SUNNY     29   6  38 W5        30.40R
RICHMOND       SUNNY     32   6  33 N13       30.41R WCI  22
RALEIGH        SUNNY     32  13  45 VRB5      30.43R

$$

ANZ530>537-291400-
MARINE OBSERVATIONS

STATION/POSITION TIME  TEMP    WIND        PRES
                       AIR SEA DIR/SP/G
                 (UTC) (F)     (DEG/KT/KT) (MB)
THOMAS PT LIGHT  1300                        N/A
BALT KEY BRIDGE  1206   27     290/ 15/ 17 1028.3R
COVE POINT       1206   27     330/ 15/ 19 1028.0R
LEWISETTA        1206   30 42              1028.5R
SOLOMONS ISLAND  1200      42                N/A
PINEY POINT      1200          340/ 20/ 22   N/A

$$




USA.gov is the U.S. government's official web portal to all federal, state and local government web resources and services.